Location: Newark
(37.9000°S, 166.5167°W)
Time: 02:36:51
(UTC+00:00)

Envisat - Pass Details

Date: 25 January 2020
Orbit: 764 x 766 km, 98.1° (Epoch: 25 February)

Event Time Altitude Azimuth Distance (km) Brightness Sun altitude
Rises 07:02:34 0° 185° (S) 3,267 6.8 -7.3°
Reaches altitude 10° 07:05:34 10° 203° (SSW) 2,332 6.4 -7.8°
Maximum altitude 07:08:57 18° 245° (WSW) 1,828 6.3 -8.4°
Drops below altitude 10° 07:12:18 10° 286° (WNW) 2,314 6.1 -8.9°
Sets 07:15:17 0° 304° (NW) 3,231 6.6 -9.4°
